Starlink 11453

operational
NORAD ID: 62411 Int'l Des: 2024-249 Owner: SPXS Country: US Constellation: starlink
LEOCIRCULAR

Starlink 11453について

説明を読み込み中...

リアルタイム位置

3D地球を読み込み中...

次回通過

高度履歴

Altitude vs Time

uPlot chart will show altitude changes over time

軌道要素

1 62411U 24249C 25304.82152530 .00162981 00000-0 12458-2 0 9994
2 62411 43.0002 224.3748 0001605 295.2799 64.7903 15.70898563 49217
Epoch: Oct 31, 2025 • Age: 5 hours

現在のステータス

高度 360.0 km
速度 7.70 km/s
衛星直下点 42.42°N, 109.97°W
打ち上げ日 Dec 23, 2024
運用期間 0.8 years
タイプ internet

技術仕様

分類 Payload
質量 960.00 kg
乾燥質量 910.00 kg
総質量 960.00 kg
長さ 0.30 m
直径 4.10 m
スパン 29.00 m
形状 Box + pan
製造者 SPXS
バスタイプ Starlink V2MD
フェーズステータス In Orbit
所有者/国 SPXS/US

大規模コンステレーション

Loading constellations...